Regional Weather Roundup
Issued by NWS Kansas City/Pleasant Hill, MO

Home | Current Version | Previous Version | Text Only | Print | Product List | Glossary On
Versions: 1 2 3 4 5 6 7 8 9 10 11 12 13 14 15 16 17 18 19 20 21 22 23 24 25 26 27 28 29 30 31 32 33 34 35 36 37 38 39 40 41 42 43 44 45 46 47 48 49 50
000
ASUS43 KEAX 282104
RWREAX

WEATHER ROUNDUP FOR EASTERN KANSAS AND NORTHWEST MISSOURI
NATIONAL WEATHER SERVICE KANSAS CITY/PLEASANT HILL MO
400 PM CDT THU MAY 28 2015

KSZ040-057-103>105-MOZ028-029-037-043-282200-
...KANSAS CITY METROPOLITAN AREA...

CITY           SKY/WX    TMP DP  RH WIND       PRES   REMARKS
K.C. INTL      CLOUDY    71  66  84 S9        30.04F
K.C. DOWNTOWN  CLOUDY    73  64  73 S7        30.02F
LEES SUMMIT    CLOUDY    71  65  81 S3        30.04F
OLATHE - IXD   CLOUDY    70  65  84 S10       30.03F
OLATHE - OJC   CLOUDY    70  66  87 S8        30.02F
LAWRENCE       CLOUDY    71  64  78 SW8       30.02F

$$

MOZ001>008-011>017-020>025-030>033-038>040-044>046-053-054-282200-
...NORTHERN AND CENTRAL MISSOURI...

CITY           SKY/WX    TMP DP  RH WIND       PRES   REMARKS
ST. JOSEPH     CLOUDY    73  65  75 S10       30.02F
MOSBY          CLOUDY    70  68  94 SE5       30.03F
WHITEMAN AFB   TSTM      66  64  94 W3        30.06F
CLINTON        NOT AVBL
SEDALIA        CLOUDY    70  63  78 W10G20    30.09R
WARSAW         NOT AVBL
CHILLICOTHE      N/A     76  65  68 SW8       30.05S
KIRKSVILLE     PTSUNNY   77  66  68 SE15      30.03F

$$

MOZ041-047>049-056>058-063>065-088>090-097-282200-
...EASTERN AND SOUTHERN MISSOURI...

CITY           SKY/WX    TMP DP  RH WIND       PRES   REMARKS
ST. LOUIS INTL LGT RAIN  73  66  78 W7        30.09F
SPIRIT OF STL  CLOUDY   N/A N/A N/A SE3       30.06F
COLUMBIA       CLOUDY    75  68  78 S5        30.06F
JEFFERSON CITY CLOUDY    77  66  68 NW8       30.04F
ROLLA          PTSUNNY   79  67  66 SE14      30.06F
OSAGE BEACH    CLOUDY    79  66  65 SE6       30.06S
SPRINGFIELD    LGT RAIN  71  66  84 NW9       30.05F
BRANSON        CLOUDY    72  68  88 SE7       30.05F
JOPLIN         CLOUDY    74  67  78 S7        30.03F
WEST PLAINS    CLOUDY    77  66  68 SE9       30.10F

$$

IAZ060-094-KSZ022-034>040-054-083-096-NEZ052-066-093-282200-
...KANSAS...SOUTHEAST NEBRASKA AND IOWA...

CITY           SKY/WX    TMP DP  RH WIND       PRES   REMARKS
TOPEKA         CLOUDY    73  63  70 S9        30.01F
MANHATTAN      CLOUDY    75  65  70 S14G22    29.98F
EMPORIA        CLOUDY    75  63  66 S14       29.98F
CHANUTE        CLOUDY    74  64  71 S8        29.99F
WICHITA        PTSUNNY   79  63  57 S14       29.97F
OMAHA          LGT RAIN  70  64  81 S16       30.00F
LINCOLN        CLOUDY    74  64  71 SE15      29.97F
FALLS CITY     CLOUDY    69  65  86 S8        30.00F
LAMONI         CLOUDY    75  65  70 S7        30.04F
DES MOINES     CLOUDY    73  62  68 S15       30.04F

$$




USA.gov is the U.S. government's official web portal to all federal, state and local government web resources and services.